Location: ?????????
(38.0736°N, 23.2119°E)
Time: 14:41:00
(UTC+00:00)

Cosmos 1763 Rocket - Pass Details

Date: 18 April 2024
Orbit: 730 x 778 km, 74.0° (Epoch: 18 May)

Event Time Altitude Azimuth Distance (km) Brightness Sun altitude
Exits shadow 19:17:47 54° 70° (ENE) 897 3.6 -23.9°
Drops below altitude 10° 19:22:07 10° 26° (NNE) 2,260 6.1 -24.6°
Sets 19:24:32 0° 23° (NNE) 3,194 6.9 -24.9°
